星链-35884(STARLINK-35884)

导读

STARLINK-35884是美国于2025年12月11日发射的星链卫星,隶属于SpaceX打造的星链卫星互联网星座项目。星链星座计划通过部署近万颗低轨卫星,为全球提供高速低延迟的互联网接入服务,该卫星的成功发射进一步推进了星链星座的组网进程,助力扩展全球卫星互联网的覆盖范围与服务能力。

基本信息
目录编号:
67044
目录名称:
STARLINK-35884
国际标识:
2025-294Q
轨道中心:
EARTH
卫星名称:
星链-35884
卫星全名:
星链-35884(STARLINK-35884)
卫星状态:
在轨 (已飞行274 天)
发射日期:
2025-12-11 UTC
国别 :
美国 (US)
星等 :
--
该卫星已列入 空间交会检测服务 Space Conjunction Data Service (SCDS) ,当前飞行风险评估等级: 无高风险
轨道信息
数据来源 国际轨道数据
星历时间: 2026-09-11T03:09:45+0800
1天前
查看轨道信息
半长轴: 6861.167km
偏心率: 0.0002316
轨道倾角: 43.001°
近地点辐角 278.232°
升交点赤经 72.298°
平近点角 81.827°
近地点: 481.44km
远地点: 484.62km
周期: 94.266分钟
每日圈数: 15.275865
详细信息
固有亮度:
5
最大亮度:
2.5
卫星平台:
Starlink V1.0
覆盖范围:
全球
运营商:
太空探索技术公司
运营商所在国:
美国
制造商(研发单位):
太空探索技术公司
制造商所在国:
美国
使用方式:
暂无
卫星简介
Starlink 计划是 SpaceX 推出的全球卫星互联网项目,通过发射低轨道卫星,为全球尤其是偏远地区提供高速、低延迟的互联网服务。自 2019 年起,Starlink 已部署数千颗卫星,旨在缩小全球数字鸿沟,推动互联网普及。该项目还为军事、航空等行业提供通信支持,带来广泛经济效益。
2D轨道图
3D轨道图
轨道高度分析图
轨道倾角分析图
轨道综合分析图
查看轨道综合分析图
交会数据列表
事件ID 空间交会对象 最接近时刻(TCA) 交会距离 交会风险概率(CRP) 交会风险指数(CRI) 操作
CDM_260912-211305-880706-704421
2026-09-12T
21:13:44+0000
0.719 km
远距离
5.779326E-5 中风险 0.7
CDM_260913-212505-614806-704421
2026-09-13T
21:25:51+0000
1.053 km
极远距离
1.225255E-5 中风险 0.57
CDM_260913-103405-880706-704421
2026-09-13T
10:34:00+0000
1.378 km
极远距离
6.481072E-6 低风险 0.51
CDM_260912-224705-880706-704421
2026-09-12T
22:47:53+0000
2.499 km
极远距离
1.336759E-6 低风险 0.38
CDM_260913-085905-880706-704421
2026-09-13T
08:59:51+0000
2.706 km
极远距离
1.178247E-6 低风险 0.36
CDM_260913-195105-614806-704421
2026-09-13T
19:51:42+0000
2.397 km
极远距离
1.133069E-6 低风险 0.36
与全量物体交会距离演化趋势
与全量物体交会风险概率演化趋势